Weather History for KTAD - December, 2012

Change the Weather History Date:

Friday, December 7, 2012

  Actual Average Record
Temperature  
Mean Temperature 40 °F 32 °F  
Max Temperature 58 °F 47 °F - ()
Min Temperature 22 °F 18 °F - ()
Degree Days  
Heating Degree Days 25 33  
Month to date heating degree days 132 224  
Since 1 July heating degree days 1180 1457  
Cooling Degree Days 0 0  
Month to date cooling degree days 0 0  
Year to date cooling degree days 1175 719  
Moisture  
Dew Point 20 °F    
Average Humidity 52    
Maximum Humidity 81    
Minimum Humidity 23    
Precipitation  
Precipitation 0.00 in 0.01 in - ()
Month to date precipitation 0.00 0.13  
Year to date precipitation 13.43  
Sea Level Pressure  
Sea Level Pressure 29.83 in    
Wind  
Wind Speed 6 mph (NNE)    
Max Wind Speed 15 mph    
Max Gust Speed 17 mph    
Visibility 10 miles    
Events      
T = Trace of Precipitation, MM = Missing Value Source: NWS Daily Summary

Daily Weather History Graph

Daily Weather History Graph

Search for Another Location

Airport or City:

Trip Planner

Search our weather history database for the weather conditions in past years. The results will help you decide how hot, cold, wet, or windy it might be!

Date:

Astronomy

Dec. 07, 2012 Rise Set
Actual Time 6:58 AM MST 4:39 PM MST
Civil Twilight 6:29 AM MST 5:08 PM MST
Nautical Twilight 5:56 AM MST 5:41 PM MST
Astronomical Twilight 5:25 AM MST 6:12 PM MST
Moon 12:27 AM MST (12/7) 12:31 PM MST (12/7)
Length of Visible Light 10h 39m
Length of Day
9h 41m
Last Quarter, 38% of the Moon is Illuminated
Dec 7
Last Quarter
Dec 13
New
Dec 19
First Quarter
Dec 28
Full
Jan 4
Last Quarter

Hourly Weather History & Observations

Time (MST) Temp. Windchill Dew Point Humidity Pressure Visibility Wind Dir Wind Speed Gust Speed Precip Events Conditions
12:54 AM 28.9 °F 21.9 °F 21.9 °F 75% 29.82 in 10.0 mi NNW 6.9 mph - N/A   Clear
1:54 AM 30.9 °F 23.5 °F 23.0 °F 72% 29.81 in 10.0 mi NNW 8.1 mph - N/A   Clear
2:54 AM 37.0 °F 34.5 °F 26.1 °F 65% 29.77 in 10.0 mi South 3.5 mph - N/A   Clear
3:54 AM 28.9 °F 21.9 °F 21.9 °F 75% 29.79 in 10.0 mi NW 6.9 mph - N/A   Clear
4:54 AM 28.9 °F 21.1 °F 21.9 °F 75% 29.81 in 10.0 mi NW 8.1 mph - N/A   Clear
5:54 AM 30.0 °F - 23.0 °F 75% 29.82 in 10.0 mi Calm Calm - N/A   Clear
6:54 AM 26.1 °F 19.4 °F 21.0 °F 81% 29.87 in 10.0 mi SSW 5.8 mph - N/A   Clear
7:54 AM 34.0 °F 27.2 °F 25.0 °F 70% 29.85 in 10.0 mi WSW 8.1 mph - N/A   Clear
8:54 AM 30.9 °F - 21.9 °F 69% 29.88 in 9.0 mi Calm Calm - N/A   Clear
9:54 AM 39.0 °F 35.7 °F 25.0 °F 57% 29.86 in 10.0 mi SSW 4.6 mph - N/A   Clear
10:54 AM 48.0 °F - 27.0 °F 44% 29.83 in 10.0 mi SSE 5.8 mph - N/A   Clear
11:54 AM 52.0 °F - 24.1 °F 34% 29.77 in 10.0 mi SSE 8.1 mph - N/A   Clear
12:54 PM 55.9 °F - 21.0 °F 26% 29.73 in 10.0 mi ESE 6.9 mph - N/A   Clear
1:54 PM 57.0 °F - 19.0 °F 23% 29.72 in 10.0 mi East 5.8 mph - N/A   Clear
2:54 PM 57.0 °F - 19.0 °F 23% 29.70 in 10.0 mi ESE 5.8 mph - N/A   Clear
3:54 PM 54.0 °F - 19.0 °F 25% 29.75 in 10.0 mi East 8.1 mph - N/A   Clear
4:54 PM 46.0 °F 41.4 °F 19.0 °F 34% 29.81 in 10.0 mi ENE 9.2 mph - N/A   Clear
5:54 PM 43.0 °F 41.3 °F 18.0 °F 37% 29.84 in 10.0 mi East 3.5 mph - N/A   Clear
6:54 PM 36.0 °F 32.1 °F 15.1 °F 43% 29.90 in 10.0 mi ENE 4.6 mph - N/A   Clear
7:54 PM 34.0 °F 27.2 °F 16.0 °F 48% 29.91 in 10.0 mi North 8.1 mph - N/A   Clear
8:54 PM 34.0 °F 28.8 °F 17.1 °F 50% 29.95 in 10.0 mi North 5.8 mph - N/A   Clear
9:54 PM 28.9 °F 21.1 °F 16.0 °F 58% 29.97 in 10.0 mi NW 8.1 mph - N/A   Clear
10:54 PM 26.1 °F 16.8 °F 14.0 °F 60% 29.95 in 10.0 mi NW 9.2 mph - N/A   Clear
11:54 PM 23.0 °F 14.7 °F 14.0 °F 68% 29.93 in 10.0 mi West 6.9 mph - N/A   Clear